Regional Weather Roundup
Issued by NWS

Home | Current Version | Previous Version | Text Only | Print | Product List | Glossary Off
Versions: 1 2 3 4 5 6 7 8 9 10 11 12 13 14 15 16 17 18 19 20 21 22 23 24 25 26 27 28 29 30 31 32 33 34 35 36 37 38 39 40 41 42 43 44 45 46 47 48 49 50

000
ASUS43 KDTX 222210
RWRMI
MICHIGAN HOURLY REGIONAL WEATHER ROUNDUP
NATIONAL WEATHER SERVICE DETROIT/PONTIAC MI
ISSUED BY NATIONAL WEATHER SERVICE GRAND RAPIDS MI
600 PM EDT THU JUN 22 2017

NOTE: "FAIR" INDICATES FEW OR NO CLOUDS BELOW 12,000 FEET WITH NO
SIGNIFICANT WEATHER AND/OR OBSTRUCTION TO VISIBILITY.

MIZ047>049-052>055-059>063-066>070-074>076-081>083-222300-
SOUTHEAST LOWER MICHIGAN

CITY           SKY/WX    TMP DP  RH WIND       PRES   REMARKS
ADRIAN         CLOUDY    85  70  60 W9        29.82F
ALMA           MOSUNNY   82  64  54 SW9       29.78F
ANN ARBOR      MOSUNNY   85  69  58 SW10G21   29.82F
BAD AXE        CLOUDY    82  68  63 SW8       29.77F
DETROIT CITY   CLOUDY    85  67  54 W16G22    29.81F
DETROIT        CLOUDY    86  69  56 SW15      29.82F HX  90
FLINT          MOSUNNY   86  64  47 SW12      29.79F
GROSSE ILE     MOSUNNY   85  69  57 W9G16     29.80F
HILLSDALE      CLOUDY    81  70  69 S7        29.83F
HOWELL         MOSUNNY   85  63  46 SW9G20    29.81F

CITY           SKY/WX    TMP DP  RH WIND       PRES   REMARKS
JACKSON        CLOUDY    83  68  60 SW14G21   29.83F
LANSING        LGT RAIN  85  65  51 SW10      29.80F
MASON          CLOUDY    83  68  59 SW7       29.81F
MONROE         CLOUDY    87  70  57 SW8       29.81F HX  92
MT. CLEMENS    PTSUNNY   89  67  47 SW12G23   29.80F HX  92
PONTIAC        PTSUNNY   85  67  54 SW12      29.81F
PORT HOPE        N/A     81  70  69 VRB3      29.75S
PORT HURON     SUNNY     84  64  51 S10G16    29.79F
TRI CITIES     CLOUDY    82  68  62 W12       29.77F
YPSILANTI      CLOUDY    87  70  56 SW13G25   29.82F HX  92
$$
MIZ043>046-050>051-056>058-064>065-071>073-077>080-222300-
SOUTHWEST LOWER MICHIGAN

CITY           SKY/WX    TMP DP  RH WIND       PRES   REMARKS
BATTLE CREEK   CLOUDY    84  70  62 S12       29.81F
BENTON HARBOR  TSTM      80  71  74 SW6G25    29.76F
BIG RAPIDS     LGT RAIN  77  67  71 SW8       29.76F
COLDWATER      CLOUDY    83  69  64 SW8       29.82F
HOLLAND        CLOUDY    82  69  64 SW9       29.78F
GRAND RAPIDS   CLOUDY    83  68  60 SW10      29.78F
KALAMAZOO      CLOUDY    86  67  52 S9G20     29.79F
MARSHALL       CLOUDY    84  69  61 SW12      29.81F
MOUNT PLEASANT CLOUDY    82  65  56 SW13G21   29.76F
MUSKEGON       CLOUDY    80  68  66 S14       29.75F
STURGIS        CLOUDY    82  72  71 S8        29.80F
$$
MIZ016>042-222300-
NORTHERN LOWER MICHIGAN

CITY           SKY/WX    TMP DP  RH WIND       PRES   REMARKS
ALPENA         CLOUDY    76  72  87 SE5       29.71F
BEAVER ISLAND  RAIN      61  61 100 SW6       29.68F
BELLAIRE       PTSUNNY   76  65  67 SW6       29.69R
CADILLAC       MOSUNNY   76  67  73 SW16G22   29.77S
CHARLEVOIX     HVY RAIN  65  65  99 W16G23    29.74R
GAYLORD        CLOUDY    76  64  66 SW13G23   29.72F
HOUGHTON LAKE  CLOUDY    76  66  71 SW10      29.76F
MANISTEE       CLOUDY    74  66  76 SW5       29.73F
OSCODA         CLOUDY    78  69  74 S10       29.73S
PELLSTON       LGT RAIN  68  65  90 CALM      29.69F
TRAVERSE CITY  LGT RAIN  77  65  66 SW10G22   29.69R
LUDINGTON      CLOUDY    74  67  79 SW7       29.73F
$$
MIZ007>008-015-222300-
EASTERN UPPER MICHIGAN

CITY           SKY/WX    TMP DP  RH WIND       PRES   REMARKS
KINROSS        LGT RAIN  65  63  93 W5        29.68R
MACKINAC ISLAN FOG       62  62 100 SW7       29.69S VSB 1
NEWBERRY       LGT RAIN  65  64  97 SW8       29.65F
S. S. MARIE    LGT RAIN  68  63  84 S8        29.65F
$$
MIZ004>006-011>014-085-222300-
CENTRAL UPPER MICHIGAN

CITY           SKY/WX    TMP DP  RH WIND       PRES   REMARKS
MANISTIQUE     LGT RAIN  62  59  90 SW8       29.65F
ESCANABA       LGT RAIN  69  68  96 S8        29.66R
MENOMINEE      LGT RAIN  68  66  93 W3        29.70R
SAWYER-GWINN   CLOUDY    66  63  88 W7        29.65F
$$
MIZ001>003-009>011-084-222300-
WESTERN UPPER MICHIGAN

CITY           SKY/WX    TMP DP  RH WIND       PRES   REMARKS
IRON MOUNTAIN  CLOUDY    69  62  78 VRB7      29.68R
HOUGHTON       CLOUDY    71  51  49 W14       29.65S
COPPER HARBOR    N/A     61  55  81 N12       29.63R
IRONWOOD       CLOUDY    71  52  50 W10       29.71R
$$

ABBREVIATIONS USED IN REMARKS
   TC - TEMPERATURE IN CELSIUS
  WCI - WIND CHILL INDEX
   HX - HEAT INDEX
  VSB - VISIBILITY





USA.gov is the U.S. government's official web portal to all federal, state and local government web resources and services.